Flag for Germany Weather past 2 weeks in Zittau, Saxony, Germany

Now
56 °F

Fog.


Feels Like: 56 °F
Forecast: 45 / 66 °F
Wind: 1 mph from Northeast

Location: Liberec

Current Time: Oct 2, 2014 at 10:33:23 AM

Latest Report: Oct 2, 2014 at 10:00 AM


Visibility: 1 mi

Pressure: 30.40 "Hg

Humidity: 100%

Dew point: 56 °F

Location of ZittauLocation

Historic Weather in Zittau — Graph

°F

Zittau temperature yesterday

Maximum temperature yesterday: 66 °F (at 3:00 PM)
Minimum temperature yesterday: 50 °F (at 11:00 PM)
Average temperature yesterday: 58 °F

Past Weeks' High & Low Weather Summary

 TemperatureHumidityPressure
High73 °F (Sep 17, 2:00 PM)100% (Sep 21, 7:00 AM)30.44 "Hg (Sep 21, 7:00 AM)
Low35 °F (Sep 24, 2:00 AM)43% (Sep 17, 2:00 PM)29.82 "Hg (Sep 21, 6:00 PM)
Average55 °F84%30.11 "Hg
* Reported Sep 17 9:00 AM — Oct 2 9:00 AM, Zittau, Weather by CustomWeather, © 2014

Note: Actual official high and low records may vary slightly from our data, if they occured in-between our weather recording intervals... More about our weather records

Advertising

Zittau weather history for previous 24 hours

 ConditionsComfort  
Time TempWeatherWind HumidityBarometerVisibility
9:00 AM
Oct 2
51 °FFog.1 mph100%30.41 "Hg0 mi
8:00 AM50 °FFog.1 mph100%30.40 "Hg0 mi
7:00 AM50 °FDuststorm.1 mph100%30.39 "Hg0 mi
6:00 AM50 °FRain showers. Overcast.No wind100%30.38 "Hg0 mi
5:00 AM51 °FLight rain. Overcast.No wind100%30.38 "Hg0 mi
4:00 AM51 °FLight rain. Overcast.1 mph100%30.37 "Hg0 mi
3:00 AM51 °FLight rain. Overcast.1 mph100%30.37 "Hg0 mi
2:00 AM51 °FLight rain. Overcast.No wind100%30.37 "Hg0 mi
1:00 AM51 °FRain showers. Overcast.No wind100%30.37 "Hg0 mi
12:00 AM48 °FRain showers. Overcast.1 mph100%30.37 "HgN/A
11:00 PM
Oct 1
50 °FDuststorm.No wind99%30.36 "Hg0 mi
10:00 PM52 °FFog.1 mph99%30.34 "Hg3 mi
9:00 PM53 °FFog.1 mph99%30.34 "Hg2 mi
8:00 PM54 °FFog.1 mph98%30.33 "Hg4 mi
7:00 PM55 °FFog.1 mph93%30.32 "Hg5 mi
6:00 PM61 °FFog.1 mph84%30.29 "Hg5 mi
5:00 PM61 °FFog.2 mph85%30.28 "Hg6 mi
4:00 PM61 °FPartly sunny.1 mph87%30.28 "Hg5 mi
3:00 PM66 °FPartly sunny.1 mph72%30.27 "Hg8 mi
2:00 PM64 °FPartly sunny.2 mph78%30.29 "Hg7 mi
1:00 PM64 °FPartly sunny.2 mph78%30.29 "Hg6 mi
12:00 PM63 °FFog.3 mph83%30.30 "Hg6 mi
11:00 AM62 °FFog.3 mph87%30.30 "Hg5 mi
10:00 AM60 °FFog.3 mph96%30.29 "Hg3 mi
Weather by CustomWeather, © 2014

See weather overviewHow to use our weather pages